Skip Page Navigation
NASA JPL Caltech
NASA Logo - Jet Propulsion Laboratory + View the NASA Portal
+ Center for Near-Earth Object Studies
JPL Home Earth Solar System Stars & Galaxies Technology
JPL Solar System Dynamics
BODIES ORBITS EPHEMERIDES TOOLS PHYSICAL DATA DISCOVERY FAQ SITE MAP
JPL Small-Body Database Browser
Search: [ help ]  
(2010 EB46)
Classification: TransNeptunian Object          SPK-ID: 3512039
Ephemeris | Orbit Diagram | Orbital Elements | Physical Parameters | Close-Approach Data ]

[ show orbit diagram ]
Orbital Elements at Epoch 2455272.5 (2010-Mar-17.0) TDB
Reference: JPL 7 (heliocentric ecliptic J2000)
 Element Value Uncertainty (1-sigma)   Units 
e .9524576766411326 0.006333  
a 31.625182129768 4.231 au
q 1.503534635096506 0.00086853 au
i 156.6350850370569 0.017983 deg
node 175.8545945146075 0.0011212 deg
peri 26.32359879980403 0.11043 deg
M 359.8110326024517 0.038958 deg
tp 2455306.598271237483
(2010-Apr-20.09827124)
0.1871 TDB
period 64960.29370546759
177.85
13036
35.69
d
yr
n .005541846864674804 0.0011121 deg/d
Q 61.74682962443948 8.2608 au
  Orbit Determination Parameters
   # obs. used (total)      88  
   data-arc span      30 days  
   first obs. used      2010-03-12  
   last obs. used      2010-04-11  
   planetary ephem.      DE441  
   SB-pert. ephem.      SB441-N16  
   condition code      8  
   norm. resid. RMS      .58591  
   source      ORB  
   producer      Otto Matic  
   solution date      2021-Apr-15 03:35:13  

Additional Information
 Earth MOID = .541307 au 
 Jupiter MOID = 1.32872 au 
 T_jup = -1.215 
[ show covariance matrix ]

Ephemeris | Orbit Diagram | Orbital Elements | Physical Parameters | Close-Approach Data ]

Physical Parameter Table
Parameter Symbol Value Units Sigma Reference Notes
absolute magnitude H 19.4   n/a MPO194120  

[ show close-approach data ]
Ephemeris | Orbit Diagram | Orbital Elements | Physical Parameters | Close-Approach Data ]
ABOUT SSD CREDITS/AWARDS PRIVACY/COPYRIGHT GLOSSARY LINKS
FirstGov 2021-Jul-27 06:59 UT
(server date/time)  
NASA Home Page
Site Manager:   Ryan S. Park
Webmaster  Alan B. Chamberlin